Regional Weather Roundup
Issued by NWS

Home | Current Version | Previous Version | Graphics & Text | Print | Product List | Glossary Off
Versions: 1 2 3 4 5 6 7 8 9 10 11 12 13 14 15 16 17 18 19 20 21 22 23 24 25 26 27 28 29 30 31 32 33 34 35 36 37 38 39 40 41 42 43 44 45 46 47 48 49 50

000
ASUS43 KLMK 040910
RWRKY
KENTUCKY REGIONAL WEATHER ROUNDUP
NATIONAL WEATHER SERVICE LOUISVILLE KY
500 AM EDT MON MAY 04 2015

NOTE "FAIR" INDICATES FEW OR NO CLOUDS BELOW 12,000 FEET
WITH NO SIGNIFICANT WEATHER AND/OR OBSTRUCTIONS TO VISIBILITY.

KYZ001>023-026-027-061>063-070>075-041000-
WESTERN AND SOUTH CENTRAL KENTUCKY

CITY           SKY/WX    TMP DP  RH WIND       PRES   REMARKS
PADUCAH        PTCLDY    65  49  56 S6        30.08R
HENDERSON      PTCLDY    61  48  63 S7        30.09R
OWENSBORO      PTCLDY    59  52  77 S5        30.11R
HOPKINSVILLE   CLOUDY    61  51  68 SE3       30.12R
BOWLING GREEN  CLEAR     55  51  86 CALM      30.14R
GLASGOW        CLEAR     55  49  81 CALM      30.15R
$$

KYZ024-025-028>034-038-045-046-053-041000-
NORTH CENTRAL KENTUCKY

CITY           SKY/WX    TMP DP  RH WIND       PRES   REMARKS
LOUISVILLE/SDF PTCLDY    60  51  72 SE5       30.12R
LOUISVILLE/LOU CLEAR     62  50  64 S3        30.13R
FORT KNOX      CLEAR     57  49  75 S5        30.11S
$$

KYZ035>037-039>044-047>052-055>060-089>105-041000-
NORTHEAST KENTUCKY

CITY           SKY/WX    TMP DP  RH WIND       PRES   REMARKS
LEXINGTON      CLEAR     58  48  69 S7        30.16R
COVINGTON      PTCLDY    58  48  69 S7        30.12R
FRANKFORT      PTCLDY    56  48  74 S5        30.13S
$$

KYZ054-064>069-076>088-106>120-041000-
SOUTHEAST KENTUCKY

CITY           SKY/WX    TMP DP  RH WIND       PRES   REMARKS
JACKSON        CLEAR     59  45  59 VRB3      30.18R
LONDON         CLEAR     52  47  83 CALM      30.19R
SOMERSET       CLEAR     50  50 100 CALM      30.19R
MIDDLESBORO    CLEAR     47  46  99 CALM      30.23R
MONTICELLO     SUNNY     49  49 100 CALM      30.21R
$$



USA.gov is the U.S. government's official web portal to all federal, state and local government web resources and services.